TimeSAST,TemperatureF,Dew PointF,Humidity,Sea Level PressureIn,VisibilityMPH,Wind Direction,Wind SpeedMPH,Gust SpeedMPH,PrecipitationIn,Events,Conditions,WindDirDegrees,DateUTC
12:00 AM,50.0,48.2,94,30.09,-9999.0,NW,3.5,-,N/A,,Clear,320,2013-04-12 22:00:00
1:00 AM,50.0,48.2,94,30.09,-9999.0,NNW,3.5,-,N/A,,Clear,330,2013-04-12 23:00:00
2:00 AM,51,47,83,30.11,19,NW,4.6,,,,,320,2013-04-13 00:00:00
2:00 AM,50.0,48.2,94,30.09,-9999.0,North,3.5,-,N/A,,Clear,350,2013-04-13 00:00:00
3:00 AM,50.0,48.2,94,30.06,-9999.0,NNW,3.5,-,N/A,,Clear,340,2013-04-13 01:00:00
4:00 AM,50.0,48.2,94,30.04,-9999.0,NNW,3.5,-,N/A,,Clear,340,2013-04-13 02:00:00
5:00 AM,49,47,89,30.06,12,NNE,2.3,,,,,20,2013-04-13 03:00:00
5:00 AM,48.2,46.4,93,30.04,-9999.0,North,3.5,-,N/A,,Clear,360,2013-04-13 03:00:00
6:00 AM,48.2,46.4,93,30.04,-9999.0,NNE,2.3,-,N/A,,Clear,20,2013-04-13 04:00:00
7:00 AM,46.4,44.6,93,30.04,6.2,North,3.5,-,N/A,,Partly Cloudy,10,2013-04-13 05:00:00
8:00 AM,52,50,91,30.07,12,,2.3,,,,,,2013-04-13 06:00:00
8:00 AM,53.6,50.0,88,30.06,-9999.0,Variable,2.3,-,N/A,,Clear,0,2013-04-13 06:00:00
9:00 AM,59.0,53.6,82,30.06,-9999.0,Variable,2.3,-,N/A,,Clear,0,2013-04-13 07:00:00
10:00 AM,64.4,53.6,68,30.06,-9999.0,Variable,2.3,-,N/A,,Clear,0,2013-04-13 08:00:00
11:00 AM,71,53,42,30.05,12,,3.5,,,,,,2013-04-13 09:00:00
11:00 AM,71.6,51.8,50,30.06,-9999.0,SE,3.5,-,N/A,,Clear,140,2013-04-13 09:00:00
12:00 PM,73.4,55.4,53,30.04,-9999.0,SSE,5.8,-,N/A,,Clear,160,2013-04-13 10:00:00
1:00 PM,73.4,53.6,50,30.01,-9999.0,SSE,5.8,-,N/A,,Clear,150,2013-04-13 11:00:00
2:00 PM,73,49,32,30.01,12,SSE,8.1,,,,,150,2013-04-13 12:00:00
2:00 PM,73.4,50.0,44,30.01,-9999.0,SE,8.1,-,N/A,,Clear,130,2013-04-13 12:00:00
3:00 PM,75.2,50.0,41,29.98,-9999.0,SE,9.2,-,N/A,,Clear,140,2013-04-13 13:00:00
4:00 PM,73.4,50.0,44,29.98,-9999.0,ESE,6.9,-,N/A,,Clear,110,2013-04-13 14:00:00
5:00 PM,72,51,36,30.00,12,East,5.8,,,,,90,2013-04-13 15:00:00
5:00 PM,71.6,51.8,50,29.98,-9999.0,ENE,6.9,-,N/A,,Clear,70,2013-04-13 15:00:00
6:00 PM,69.8,50.0,49,29.98,-9999.0,ESE,3.5,-,N/A,,Clear,120,2013-04-13 16:00:00
7:00 PM,66.2,50.0,56,30.01,-9999.0,SE,4.6,-,N/A,,Clear,130,2013-04-13 17:00:00
8:00 PM,59,51,69,30.02,12,NE,3.5,,,,,40,2013-04-13 18:00:00
8:00 PM,59.0,51.8,77,30.01,-9999.0,ESE,2.3,-,N/A,,Clear,110,2013-04-13 18:00:00
9:00 PM,55.4,50.0,82,30.01,-9999.0,North,2.3,-,N/A,,Clear,350,2013-04-13 19:00:00
10:00 PM,55.4,50.0,82,30.01,-9999.0,NNW,3.5,-,N/A,,Clear,330,2013-04-13 20:00:00
11:00 PM,55.4,50.0,82,30.01,-9999.0,Variable,2.3,-,N/A,,Clear,0,2013-04-13 21:00:00